DECAYED
Showing default

XJS B, 43519 (Decayed)

Orbit data source: Space-Track

XJS B, 43519 was a payload satellite owned by PLA SSF (CN) in LEO that was launched on Wed, 27 Jun 2018 UTC via a CHANG ZHENG 2C launch vehicle from the Xichang Space Center, China (XSC). Payload-class satellites include a variety of spacecraft equipped with specific instruments for various scientific and technological missions. These include communications satellites like Starlink; space stations such as the ISS; scientific satellites like the Hubble; Earth observation satellites from companies like Planet Labs, Umbra, and HawkEye 360; GPS; miniature CubeSats for education and research; and military/defense satellites.

Not visible in the next 10 days
Identifier
43519, 2018-054B
Orbit
Decayed
Country
Flag of CNCN / PRC
Related business
Manufacturer
SECM
Mission
Decayed Civil Technology
Bus & Motor
Unknown
Mass
~500 kg wet, ~500 kg dry
Launch date (UTC)
2018-06-27 (7 years ago)
Launch vehicle
CHANG ZHENG 2C
Launch site
Xichang Space Center, China (XSC)
Object type
Payload
Rocket body
Debris
Shape & HBR
Box + 2 Pan, 0.5 m
Radar Cross Section
0.446 m², Large (>1 m²)

Expand to show TLE details & history
Last TLE update: 10 months ago

TLE from 10 months ago
0 XJS B
1 43519U 18054B   24317.76559676  .28406718  14471-5  81980-3 0  9995
2 43519  35.0060 159.8307 0006738 296.7770 161.4008 16.45174755358149
Epoch: 2024-11-12T18:22Z
TLE epoch observation values (Epoch: 2024-11-12T18:22:27.56Z)
Latitude
34.75071°
Longitude
-68.16548°
Altitude
156.676 km
Speed
7.816 km/s
True Right ascension
17h 19m 17s
True Declination
34° 34' 30"
Sunlit
Object was in daylight at epoch
Visualization orbit readout
Latitude
Unknown
Longitude
Unknown
Altitude
Unknown
Speed
Unknown
Apparent Right ascension
Unknown
Apparent Declination
Unknown
Sunlit
N/A
Visualization observer readout
Local Sidereal Time
02:45:17
Azimuth
Unknown
Elevation
Unknown
Doppler factor
Unknown
Orbital elements
Apogee altitude
159.896 km
Perigee altitude
151.091 km
Semi-major axis
6,533.63 km
Eccentricity
0.00067
Inclination
35.006°
RAAN
159.8307°
Arg. of periapsis
296.777°
True anomaly
161.42541°
Mean anomaly
161.4008°
Eccentric anomaly
161.41311°
Mean motion
4.10971 °/min
Orbital period
87.6 mins
BSTAR
0.0008198
Loading maneuver chart data...
Computing Atmospheric mass density...
Loading historical data...
Loading historical data...
Loading historical data...
Loading historical data...
Loading historical data...
Loading historical data...
Loading historical data...
Other satellites on launch #54 in the year 2018 (2018-06-27 UTC)

Documentation

Showing up to 5 results
|